This is the latest recevied weather packets stored in our database for station/object W4TJP. If no packets are shown the sender has not sent any weather packets the latest 10 day(s).
| Time | Temp. | Humidity | Pressure | Rain* | Wind** | Luminosity | Snow |
|---|---|---|---|---|---|---|---|
| 1777337670 | 20.56° C | 70% | 1014.5 hPa | 0 mm | - | 0 W/m² | - |
| 1777337367 | 21.11° C | 70% | 1014.5 hPa | 0 mm | - | 0 W/m² | - |
| 1777337065 | 21.11° C | 69% | 1014.4 hPa | 0 mm | - | 0 W/m² | - |
| 1777336763 | 21.11° C | 69% | 1014 hPa | 0 mm | - | 0 W/m² | - |
| 1777336461 | 21.11° C | 69% | 1014.1 hPa | 0 mm | - | 0 W/m² | - |
| 1777336158 | 21.11° C | 68% | 1014.1 hPa | 0 mm | - | 0 W/m² | - |
| 1777335855 | 21.11° C | 68% | 1014.3 hPa | 0 mm | - | 0 W/m² | - |
| 1777335552 | 21.67° C | 68% | 1014.1 hPa | 0 mm | - | 1 W/m² | - |
| 1777335249 | 21.67° C | 68% | 1014.2 hPa | 0 mm | - | 2 W/m² | - |
| 1777334947 | 21.67° C | 67% | 1014.2 hPa | 0 mm | - | 6 W/m² | - |
| 1777334644 | 21.67° C | 67% | 1014.5 hPa | 0 mm | - | 7 W/m² | - |
| 1777334341 | 21.67° C | 66% | 1014.4 hPa | 0 mm | - | 8 W/m² | - |
| 1777334036 | 21.67° C | 67% | 1014.5 hPa | 0 mm | - | 10 W/m² | - |
| 1777333732 | 21.67° C | 67% | 1014.5 hPa | 0 mm | - | 13 W/m² | - |
| 1777333429 | 22.22° C | 66% | 1014.3 hPa | 0 mm | - | 17 W/m² | - |
| 1777333127 | 22.22° C | 65% | 1014.5 hPa | 0 mm | - | 19 W/m² | - |
| 1777332825 | 22.22° C | 65% | 1014.4 hPa | 0 mm | - | 26 W/m² | - |
| 1777332521 | 22.78° C | 65% | 1014.1 hPa | 0 mm | - | 28 W/m² | - |
| 1777332218 | 22.78° C | 64% | 1014.3 hPa | 0 mm | - | 29 W/m² | - |
| 1777331915 | 22.78° C | 63% | 1014.2 hPa | 0 mm | - | 32 W/m² | - |
| 1777331613 | 22.78° C | 63% | 1014.3 hPa | 0 mm | - | 38 W/m² | - |
| 1777331310 | 23.33° C | 63% | 1014.3 hPa | 0 mm | - | 42 W/m² | - |
| 1777331007 | 23.33° C | 62% | 1014.3 hPa | 0 mm | - | 45 W/m² | - |
| 1777330704 | 23.33° C | 63% | 1014.1 hPa | 0 mm | - | 49 W/m² | - |
| 1777330401 | 23.33° C | 63% | 1014.2 hPa | 0 mm | - | 58 W/m² | - |
* Rain latest hour (hover to see other rain measurements)
** Current wind speed in m/s (hover to see current wind gust speed)